FENGYUN 1C DEB

Satellite information

Favourite Embed

Satellite Type and Status

DEBRISIN ORBIT

Key statistics

Satellite FENGYUN 1C DEB at a glance.

Uptime

9714

Days in orbit

Revolutions

≈ 14.4

Per day

Orbit

SSO

Sun Synchronous Orbit

Inclination

98.9

Latest

Satellite identification and parameters

Extended collection of information and parameters for FENGYUN 1C DEB.

Object identification

Identified? True

Debris? True

Object name: FENGYUN 1C DEB

International designator: 1999-025CRY

Object number (NORAD): 32130

Object ID (CCSDS): 32130

Country: PEOPLES REPUBLIC OF CHINA (PRC)

Current information (Y/N): Y

RCS size: SMALL

Orbital parameters

Period: 100.171 minutes

Inclination: 98.9038 deg

SMA: 7144.758 km

Apoapsis: 825.576 km

Periapsis: 707.67 km

RAAN: 152.7804 deg

Eccentricy: 0.00825122

Argument of periapsis: 331.5241 deg

Mean anomaly: 28.1449 deg

Mean motion: 14.37545048 rev/day

Mean motion (dot): 0.00001924 rev/day2

B* drag term: 0.00063289751 1/REarth

Two-line elements (TLE)

Creation date: Dec. 12, 2025, 10:14 a.m.

Reference frame: TEME

Reference center: EARTH

Epoch: Dec. 12, 2025, 6:50 a.m. UTC

TLE line 0: 0 FENGYUN 1C DEB

TLE line 1: 1 32130U 99025CRY 25346.28517161 .00001924 00000-0 63290-3 0 9994

TLE line 2: 2 32130 98.9038 152.7804 0082512 331.5241 28.1449 14.37545048962288

Live tracking on map

Real-time ground track for satellite FENGYUN 1C DEB.

In-orbit conjunctions

A list of the most updated potential collisions computed for object FENGYUN 1C DEB.

Target Orbit TCA Probability of collision Miss distance Type
CZ-6A DEB LEO 2025-11-12 14:28:09 0.000105228 384.0 (m) DEBRIS
CZ-6A DEB LEO 2025-07-30 00:54:02 0.0001792531 853.0 (m) DEBRIS
COSMOS 2251 DEB LEO 2025-02-18 20:07:08 0.0001084816 106.0 (m) DEBRIS
CZ-6A DEB LEO 2025-01-27 12:43:31 0.0001084458 195.0 (m) DEBRIS
COSMOS 304 LEO 2024-12-24 07:12:57 0.0002674951 259.0 (m) PAYLOAD

Associated space launch

Chinese polar orbiting meteorological satellite

FENGYUN 1C DEB was lifted into orbit during the mission ‘Long March 4B | Feng Yun 1C’, on board a Long March 4B space rocket.

The launch took place on May 10, 1999, 1:33 a.m. from Launch Complex 7.

For more information about the launch, click the button.

Launch to space Long March 4B | Feng Yun 1C
Long March 4B | Feng Yun 1C

Agency: N/A

Status: Launch Successful

Launch date: May 10, 1999, 1:33 a.m. UTC

Rocket: Long March 4B

Launch pad: Launch Complex 7

Location: Taiyuan Satellite Launch Center, People's Republic of China

...

Latest news about this satellite

There are no fresh news available about this satellite. Check back as we update our databases every day.


Newsletter sign-up

Weekly statistics, charts and insights to help you stay on top of the space industry.